CFG63H LFMN-EDDS

Flight info

Callsign CFG63H
Flight time 1h 0m
Altitude 32000
Route BASIP DCT ANAKI DCT ABESI DCT UTAVO DCT SOPER N851 ROMIR T125 REUTL REUTL5A
Aircraft A320/M-SDE3FGHIRWY/LB1

Departure

Time 2026-05-01 10:02
Airport Nice-Côte d'Azur Airport (LFMN)

Arrival

Time 2026-05-01 11:02
Airport Stuttgart Airport (EDDS)
Time Latitude Longitude Altitude Speed Heading
2026-05-01 09:37 43.65775 7.20500 22 ft 0 kts 330°
2026-05-01 09:55 43.65771 7.20503 22 ft 2 kts 330°
2026-05-01 09:55 43.65755 7.20516 23 ft 3 kts 324°
2026-05-01 09:55 43.65739 7.20533 25 ft 3 kts 315°
2026-05-01 09:56 43.65726 7.20554 25 ft 3 kts 296°
2026-05-01 09:56 43.65721 7.20576 23 ft 3 kts 251°
2026-05-01 09:56 43.65724 7.20586 23 ft 0 kts 225°
2026-05-01 09:58 43.65712 7.20569 26 ft 7 kts 225°
2026-05-01 09:58 43.65667 7.20508 22 ft 9 kts 225°
2026-05-01 09:59 43.65626 7.20451 22 ft 8 kts 225°
2026-05-01 09:59 43.65590 7.20403 22 ft 7 kts 225°
2026-05-01 09:59 43.65560 7.20361 22 ft 7 kts 225°
2026-05-01 09:59 43.65499 7.20277 22 ft 14 kts 225°
2026-05-01 10:00 43.65434 7.20191 24 ft 12 kts 216°
2026-05-01 10:00 43.65361 7.20194 22 ft 11 kts 152°
2026-05-01 10:00 43.65300 7.20268 22 ft 11 kts 135°
2026-05-01 10:00 43.65249 7.20337 22 ft 11 kts 135°
2026-05-01 10:01 43.65203 7.20426 22 ft 12 kts 89°
2026-05-01 10:01 43.65224 7.20465 22 ft 0 kts 43°
2026-05-01 10:01 43.65271 7.20528 22 ft 39 kts 45°
2026-05-01 10:01 43.65639 7.21034 24 ft 107 kts 44°
2026-05-01 10:02 43.66302 7.21950 44 ft 157 kts 45°
2026-05-01 10:02 43.67049 7.23018 728 ft 153 kts 61°
2026-05-01 10:02 43.67400 7.24373 1378 ft 151 kts 88°
2026-05-01 10:02 43.67248 7.25794 1911 ft 159 kts 114°
2026-05-01 10:03 43.66553 7.27096 2258 ft 179 kts 132°
2026-05-01 10:03 43.65641 7.28428 2582 ft 200 kts 131°
2026-05-01 10:03 43.64688 7.29853 3186 ft 205 kts 131°
2026-05-01 10:03 43.63780 7.31413 3695 ft 213 kts 115°
2026-05-01 10:04 43.63515 7.33414 4317 ft 216 kts 81°
2026-05-01 10:04 43.64002 7.35359 5079 ft 215 kts 67°
2026-05-01 10:04 43.64542 7.37284 5842 ft 216 kts 69°
2026-05-01 10:04 43.65044 7.39257 6506 ft 220 kts 70°
2026-05-01 10:05 43.65547 7.41274 7155 ft 223 kts 70°
2026-05-01 10:05 43.66049 7.43279 7806 ft 224 kts 69°
2026-05-01 10:05 43.66569 7.45332 8440 ft 229 kts 68°
2026-05-01 10:05 43.67102 7.47417 9086 ft 232 kts 68°
2026-05-01 10:06 43.67645 7.49533 9711 ft 237 kts 66°
2026-05-01 10:06 43.68230 7.51753 10068 ft 255 kts 68°
2026-05-01 10:06 43.68851 7.54087 10601 ft 262 kts 68°
2026-05-01 10:06 43.69483 7.56456 11237 ft 264 kts 68°
2026-05-01 10:07 43.70117 7.58840 11913 ft 266 kts 69°
2026-05-01 10:07 43.70779 7.61329 12185 ft 288 kts 69°
2026-05-01 10:07 43.71483 7.63991 12376 ft 310 kts 68°
2026-05-01 10:07 43.72250 7.66895 12540 ft 333 kts 69°
2026-05-01 10:08 43.74340 7.72768 13615 ft 347 kts 49°
2026-05-01 10:08 43.75936 7.75270 14323 ft 348 kts 48°
2026-05-01 10:08 43.77554 7.77799 14889 ft 353 kts 49°
2026-05-01 10:09 43.79184 7.80356 15501 ft 356 kts 49°
2026-05-01 10:09 43.80826 7.82935 16119 ft 358 kts 49°
2026-05-01 10:09 43.82458 7.85496 16744 ft 360 kts 49°
2026-05-01 10:09 43.84120 7.88106 17392 ft 362 kts 49°
2026-05-01 10:10 43.85785 7.90729 18035 ft 363 kts 49°
2026-05-01 10:10 43.87459 7.93368 18665 ft 365 kts 49°
2026-05-01 10:10 43.90446 7.99101 19714 ft 371 kts 59°
2026-05-01 10:11 43.91723 8.02232 20234 ft 374 kts 59°
2026-05-01 10:11 43.93008 8.05381 20753 ft 377 kts 59°
2026-05-01 10:11 43.94302 8.08555 21263 ft 380 kts 59°
2026-05-01 10:11 43.95587 8.11716 21759 ft 382 kts 59°
2026-05-01 10:12 43.96896 8.14937 22250 ft 385 kts 59°
2026-05-01 10:12 43.98217 8.18185 22739 ft 387 kts 59°
2026-05-01 10:12 44.00884 8.24744 23673 ft 393 kts 59°
2026-05-01 10:13 44.02232 8.28054 24087 ft 395 kts 59°
2026-05-01 10:13 44.03588 8.31392 24444 ft 398 kts 59°
2026-05-01 10:13 44.04949 8.34754 24820 ft 400 kts 59°
2026-05-01 10:14 44.07657 8.41472 25599 ft 402 kts 59°
2026-05-01 10:14 44.09027 8.44874 25948 ft 405 kts 59°
2026-05-01 10:14 44.10406 8.48297 26275 ft 407 kts 59°
2026-05-01 10:14 44.11792 8.51750 26571 ft 410 kts 59°
2026-05-01 10:15 44.13184 8.55222 26883 ft 412 kts 59°
2026-05-01 10:15 44.14584 8.58720 27199 ft 415 kts 59°
2026-05-01 10:15 44.15993 8.62237 27506 ft 417 kts 59°
2026-05-01 10:15 44.17533 8.65660 27797 ft 418 kts 51°
2026-05-01 10:16 44.19506 8.68623 28088 ft 418 kts 40°
2026-05-01 10:16 44.21825 8.70980 28370 ft 420 kts 30°
2026-05-01 10:16 44.27299 8.73678 29092 ft 420 kts
2026-05-01 10:17 44.30212 8.74151 29337 ft 422 kts
2026-05-01 10:17 44.36074 8.75064 29842 ft 426 kts
2026-05-01 10:17 44.39025 8.75523 30088 ft 427 kts
2026-05-01 10:18 44.44949 8.76454 30557 ft 429 kts
2026-05-01 10:18 44.47912 8.76925 30830 ft 428 kts
2026-05-01 10:18 44.50875 8.77398 31099 ft 428 kts
2026-05-01 10:19 44.53830 8.77868 31371 ft 427 kts
2026-05-01 10:19 44.56742 8.78330 31648 ft 427 kts
2026-05-01 10:19 44.59697 8.78796 31930 ft 427 kts
2026-05-01 10:20 44.65591 8.79721 32336 ft 425 kts
2026-05-01 10:20 44.68524 8.80181 32365 ft 422 kts
2026-05-01 10:20 44.74352 8.81111 32384 ft 421 kts
2026-05-01 10:21 44.83041 8.82509 32393 ft 421 kts
2026-05-01 10:22 44.91760 8.83904 32397 ft 420 kts
2026-05-01 10:23 45.00468 8.85302 32404 ft 420 kts
2026-05-01 10:23 45.09121 8.86702 32402 ft 419 kts
2026-05-01 10:24 45.20697 8.88569 32400 ft 418 kts
2026-05-01 10:25 45.32249 8.90441 32339 ft 421 kts
2026-05-01 10:26 45.38075 8.91388 32348 ft 421 kts
2026-05-01 10:27 45.49736 8.93306 32385 ft 422 kts
2026-05-01 10:28 45.58457 8.94733 32384 ft 423 kts
2026-05-01 10:28 45.67220 8.96169 32390 ft 422 kts
2026-05-01 10:29 45.75976 8.97618 32391 ft 422 kts
2026-05-01 10:30 45.87612 8.99540 32400 ft 422 kts
2026-05-01 10:31 45.99263 9.01480 32397 ft 421 kts
2026-05-01 10:32 46.07998 9.02937 32389 ft 421 kts
2026-05-01 10:33 46.19644 9.03788 32385 ft 424 kts 357°
2026-05-01 10:34 46.28447 9.02602 32389 ft 423 kts 357°
2026-05-01 10:34 46.34269 9.01831 32373 ft 423 kts 357°
2026-05-01 10:35 46.43066 9.00647 32343 ft 423 kts 357°
2026-05-01 10:35 46.48928 8.99857 32328 ft 423 kts 357°
2026-05-01 10:36 46.57715 8.98672 32332 ft 423 kts 357°
2026-05-01 10:37 46.63535 8.97891 32316 ft 423 kts 356°
2026-05-01 10:37 46.72341 8.96701 32307 ft 424 kts 356°
2026-05-01 10:38 46.78232 8.95913 32293 ft 426 kts 356°
2026-05-01 10:38 46.84148 8.95114 32296 ft 428 kts 356°
2026-05-01 10:39 46.90042 8.94277 32293 ft 429 kts 355°
2026-05-01 10:39 46.95966 8.93193 32294 ft 429 kts 354°
2026-05-01 10:40 47.01893 8.91999 32299 ft 430 kts 354°
2026-05-01 10:40 47.07825 8.90829 32295 ft 430 kts 354°
2026-05-01 10:41 47.13762 8.89702 32247 ft 432 kts 354°
2026-05-01 10:41 47.19684 8.88583 31739 ft 432 kts 354°
2026-05-01 10:42 47.22669 8.88017 31488 ft 433 kts 354°
2026-05-01 10:42 47.25657 8.87445 31237 ft 433 kts 354°
2026-05-01 10:42 47.28648 8.86869 30998 ft 434 kts 354°
2026-05-01 10:42 47.31644 8.86291 30755 ft 434 kts 354°
2026-05-01 10:43 47.34634 8.85715 30515 ft 433 kts 354°
2026-05-01 10:43 47.37616 8.85137 30249 ft 431 kts 354°
2026-05-01 10:43 47.40589 8.84558 29967 ft 430 kts 354°
2026-05-01 10:43 47.43508 8.83992 29682 ft 428 kts 354°
2026-05-01 10:44 47.46452 8.83428 29258 ft 425 kts 354°
2026-05-01 10:44 47.49371 8.82873 28638 ft 420 kts 354°
2026-05-01 10:44 47.52250 8.82322 28059 ft 415 kts 354°
2026-05-01 10:44 47.55103 8.81771 27479 ft 412 kts 354°
2026-05-01 10:45 47.57927 8.81226 26914 ft 408 kts 354°
2026-05-01 10:45 47.60732 8.80684 26343 ft 405 kts 354°
2026-05-01 10:45 47.63517 8.80143 25781 ft 402 kts 354°
2026-05-01 10:45 47.66279 8.79606 25225 ft 400 kts 353°
2026-05-01 10:46 47.68990 8.79074 24672 ft 397 kts 353°
2026-05-01 10:46 47.71728 8.78537 24148 ft 395 kts 353°
2026-05-01 10:46 47.74449 8.78006 23568 ft 394 kts 353°
2026-05-01 10:46 47.77149 8.77479 23062 ft 390 kts 353°
2026-05-01 10:47 47.79831 8.76952 22563 ft 387 kts 354°
2026-05-01 10:47 47.82485 8.76430 22113 ft 383 kts 353°
2026-05-01 10:47 47.85114 8.75913 21663 ft 380 kts 354°
2026-05-01 10:47 47.87722 8.75401 21220 ft 376 kts 354°
2026-05-01 10:48 47.90309 8.74893 20779 ft 373 kts 354°
2026-05-01 10:48 47.92837 8.74396 20343 ft 371 kts 354°
2026-05-01 10:48 47.95386 8.73899 19898 ft 368 kts 354°
2026-05-01 10:48 47.97919 8.73407 19443 ft 366 kts 354°
2026-05-01 10:49 48.00444 8.72913 18982 ft 365 kts 354°
2026-05-01 10:49 48.02962 8.72417 18506 ft 365 kts 354°
2026-05-01 10:49 48.05473 8.71919 18001 ft 364 kts 354°
2026-05-01 10:49 48.07978 8.71417 17528 ft 362 kts 354°
2026-05-01 10:50 48.10436 8.70923 17057 ft 360 kts 354°
2026-05-01 10:50 48.12919 8.70427 16580 ft 359 kts 354°
2026-05-01 10:50 48.15396 8.69939 16105 ft 359 kts 354°
2026-05-01 10:50 48.17872 8.69451 15631 ft 358 kts 354°
2026-05-01 10:51 48.20343 8.68964 15140 ft 358 kts 354°
2026-05-01 10:51 48.22807 8.68476 14681 ft 357 kts 354°
2026-05-01 10:51 48.25269 8.67986 14191 ft 357 kts 354°
2026-05-01 10:51 48.27731 8.67493 13670 ft 356 kts 354°
2026-05-01 10:52 48.30179 8.67003 13182 ft 354 kts 354°
2026-05-01 10:52 48.32611 8.66513 12704 ft 352 kts 354°
2026-05-01 10:52 48.35000 8.66031 12219 ft 350 kts 354°
2026-05-01 10:52 48.37414 8.65545 11723 ft 349 kts 354°
2026-05-01 10:53 48.39815 8.65066 11219 ft 348 kts 354°
2026-05-01 10:53 48.42208 8.64589 10709 ft 346 kts 354°
2026-05-01 10:53 48.44575 8.64115 10481 ft 337 kts 354°
2026-05-01 10:53 48.46853 8.63656 10352 ft 325 kts 354°
2026-05-01 10:54 48.49052 8.63212 10231 ft 313 kts 354°
2026-05-01 10:54 48.51179 8.62784 10081 ft 305 kts 354°
2026-05-01 10:54 48.53226 8.62384 9967 ft 297 kts 356°
2026-05-01 10:54 48.55261 8.62624 9520 ft 293 kts 20°
2026-05-01 10:55 48.57014 8.64095 9110 ft 288 kts 44°
2026-05-01 10:55 48.58208 8.66466 8672 ft 283 kts 68°
2026-05-01 10:55 48.58853 8.69253 8251 ft 281 kts 77°
2026-05-01 10:55 48.59355 8.72112 7829 ft 282 kts 77°
2026-05-01 10:56 48.59891 8.74957 7447 ft 280 kts 76°
2026-05-01 10:56 48.60425 8.77672 7089 ft 267 kts 76°
2026-05-01 10:56 48.60937 8.80293 6740 ft 253 kts 77°
2026-05-01 10:56 48.61423 8.82793 6346 ft 244 kts 76°
2026-05-01 10:57 48.61890 8.85205 6004 ft 234 kts 77°
2026-05-01 10:57 48.62339 8.87520 5693 ft 226 kts 76°
2026-05-01 10:57 48.62776 8.89781 5395 ft 221 kts 77°
2026-05-01 10:57 48.63199 8.91972 5101 ft 213 kts 77°
2026-05-01 10:58 48.63604 8.94069 4820 ft 203 kts 77°
2026-05-01 10:58 48.63994 8.96094 4578 ft 198 kts 77°
2026-05-01 10:58 48.64368 8.98043 4301 ft 196 kts 76°
2026-05-01 10:58 48.64743 8.99988 4024 ft 189 kts 76°
2026-05-01 10:59 48.65105 9.01892 3819 ft 188 kts 77°
2026-05-01 10:59 48.65466 9.03769 3509 ft 179 kts 74°
2026-05-01 10:59 48.65797 9.05493 3346 ft 162 kts 76°
2026-05-01 10:59 48.66102 9.07071 3078 ft 154 kts 77°
2026-05-01 11:00 48.66390 9.08591 2867 ft 146 kts 76°
2026-05-01 11:00 48.66668 9.10052 2664 ft 141 kts 77°
2026-05-01 11:00 48.66941 9.11473 2524 ft 140 kts 75°
2026-05-01 11:00 48.67212 9.12871 2336 ft 139 kts 76°
2026-05-01 11:01 48.67477 9.14264 2108 ft 137 kts 72°
2026-05-01 11:01 48.67743 9.15659 1961 ft 139 kts 74°
2026-05-01 11:01 48.68010 9.17072 1789 ft 139 kts 74°
2026-05-01 11:01 48.68276 9.18461 1580 ft 138 kts 75°
2026-05-01 11:02 48.68549 9.19859 1402 ft 137 kts 75°
2026-05-01 11:02 48.68798 9.21207 1287 ft 122 kts 75°
2026-05-01 11:02 48.68996 9.22245 1286 ft 81 kts 74°
2026-05-01 11:02 48.69102 9.22791 1285 ft 33 kts 69°
2026-05-01 11:03 48.69215 9.23020 1285 ft 22 kts 45°
2026-05-01 11:03 48.69311 9.23147 1287 ft 14 kts 24°
2026-05-01 11:03 48.69398 9.23114 1285 ft 13 kts 308°
2026-05-01 11:03 48.69392 9.22957 1287 ft 20 kts 254°
2026-05-01 11:04 48.69346 9.22715 1287 ft 26 kts 254°
2026-05-01 11:04 48.69295 9.22442 1285 ft 28 kts 254°
2026-05-01 11:04 48.69240 9.22157 1285 ft 29 kts 254°
2026-05-01 11:04 48.69184 9.21859 1285 ft 30 kts 254°
2026-05-01 11:05 48.69124 9.21551 1285 ft 30 kts 254°
2026-05-01 11:05 48.69066 9.21238 1285 ft 31 kts 254°
2026-05-01 11:05 48.69007 9.20932 1285 ft 30 kts 253°
2026-05-01 11:05 48.68949 9.20625 1285 ft 31 kts 254°
2026-05-01 11:06 48.68888 9.20307 1288 ft 32 kts 254°
2026-05-01 11:06 48.68831 9.20016 1289 ft 24 kts 246°
2026-05-01 11:06 48.68746 9.19793 1285 ft 25 kts 254°
2026-05-01 11:07 48.68651 9.19289 1287 ft 15 kts 253°
2026-05-01 11:07 48.68663 9.19174 1285 ft 11 kts 323°
2026-05-01 11:07 48.68731 9.19141 1287 ft 9 kts 352°
2026-05-01 11:07 48.68768 9.19196 1286 ft 8 kts 70°
2026-05-01 11:08 48.68787 9.19287 1285 ft 9 kts 73°
2026-05-01 11:08 48.68820 9.19307 1285 ft 4 kts 351°
2026-05-01 11:08 48.68857 9.19295 1286 ft 0 kts 345°